Flag for Switzerland Weather past 2 weeks in Schaffhausen, Schaffhausen, Switzerland

Now
82 °F

Passing clouds.


Feels Like: 82 °F
Forecast: 56 / 86 °F
Wind: 5 mph from Northwest

Location: Zurich-Kloten

Current Time: Aug 30, 2015 at 8:41:29 PM

Latest Report: Aug 30, 2015 at 8:00 PM


Visibility: 25 mi

Pressure: 29.98 "Hg

Humidity: 41%

Dew point: 56 °F

Location of SchaffhausenLocation

Historic Weather in Schaffhausen — Graph

°F

Schaffhausen temperature yesterday

Maximum temperature yesterday: 90 °F (at 4:00 PM)
Minimum temperature yesterday: 60 °F (at 4:00 AM)
Average temperature yesterday: 76 °F

Past Weeks' High & Low Weather Summary

 TemperatureHumidityPressure
High91 °F (Aug 30, 4:00 PM)100% (Aug 21, 8:00 AM)30.28 "Hg (Aug 21, 8:00 AM)
Low47 °F (Aug 26, 5:00 AM)24% (Aug 30, 3:00 PM)29.70 "Hg (Aug 24, 8:00 AM)
Average65 °F72%30.02 "Hg
* Reported Aug 15 7:00 PM — Aug 30 7:00 PM, Schaffhausen, Weather by CustomWeather, © 2015

Note: Actual official high and low records may vary slightly from our data, if they occured in-between our weather recording intervals... More about our weather records

Advertising

Schaffhausen weather history for previous 24 hours

 ConditionsComfort  
Time TempWeatherWind HumidityBarometerVisibility
7:00 PM
Sun, Aug 30
88 °FHot.3 mph27%29.96 "HgN/A
6:00 PM90 °FHot.3 mph25%29.95 "HgN/A
5:00 PM90 °FPassing clouds.2 mph25%29.96 "Hg25 mi
4:00 PM91 °FHot.3 mph25%29.98 "HgN/A
3:00 PM89 °FHot.5 mph24%30.01 "HgN/A
2:00 PM87 °FPassing clouds.1 mph29%30.03 "Hg22 mi
1:00 PM88 °FPleasantly warm.3 mph34%30.06 "HgN/A
12:00 PM84 °FWarm.3 mph41%30.09 "HgN/A
11:00 AM81 °FPassing clouds.5 mph48%30.10 "Hg17 mi
10:00 AM79 °FWarm.5 mph57%30.11 "HgN/A
9:00 AM74 °FMild.7 mph69%30.13 "HgN/A
8:00 AM70 °FPassing clouds.5 mph81%30.13 "Hg16 mi
7:00 AM65 °FMild.6 mph90%30.14 "HgN/A
6:00 AM67 °FMild.5 mph86%30.12 "HgN/A
5:00 AM68 °FPassing clouds.5 mph86%30.11 "Hg16 mi
4:00 AM68 °FMild.6 mph83%30.11 "HgN/A
3:00 AM67 °FMild.3 mph84%30.11 "HgN/A
2:00 AM67 °FClear.5 mph85%30.11 "Hg16 mi
1:00 AM67 °FMild.3 mph85%30.10 "HgN/A
12:00 AM69 °FMild.3 mph82%30.09 "HgN/A
11:00 PM
Sat, Aug 29
70 °FClear.2 mph76%30.08 "Hg19 mi
10:00 PM71 °FMild.2 mph75%30.07 "HgN/A
9:00 PM77 °FWarm.3 mph59%30.04 "HgN/A
8:00 PM85 °FPassing clouds.3 mph43%30.01 "Hg22 mi
Weather by CustomWeather, © 2015

See weather overviewHow to use our weather pages